Location: Chuathbaluk
(61.5726°N, 159.2454°W)
Time: 12:43:35
(UTC+00:00)

XW-2F - Pass Details

Date: 20 January 2021
Orbit: 500 x 520 km, 97.5° (Epoch: 01 March)

Event Time Altitude Azimuth Distance (km) Brightness Sun altitude
Rises 03:10:19 0° 154° (SSE) 2,614 ? -6.7°
Reaches altitude 10° 03:12:24 10° 152° (SSE) 1,736 ? -6.9°
Maximum altitude 03:16:07 69° 69° (ENE) 557 ? -7.3°
Drops below altitude 10° 03:19:54 10° 347° (NNW) 1,761 ? -7.7°
Sets 03:22:01 0° 345° (NNW) 2,656 ? -7.9°
